Cozumel (Civ/Mil, Mexico

10:09 PM on December 06, 2016 (GMT +0000)
Cozumel International

Weather History for MMCZ - December, 2012

Change the Weather History Date:

Tuesday, December 25, 2012

  Actual Average Record
Temperature  
Mean Temperature 66 °F -  
Max Temperature 78 °F 80 °F 86 °F (1997)
Min Temperature 55 °F 69 °F 55 °F (2010)
Cooling Degree Days 2    
Growing Degree Days 16 (Base 50)    
Moisture  
Dew Point 59 °F    
Average Humidity 76    
Maximum Humidity 88    
Minimum Humidity 47    
Precipitation  
Precipitation 0.00 in - - ()
Sea Level Pressure  
Sea Level Pressure 29.89 in    
Wind  
Wind Speed 2 mph ()    
Max Wind Speed 12 mph    
Max Gust Speed -    
Visibility 7.5 miles    
Events      
Averages and records for this station are not official NWS values.
T = Trace of Precipitation, MM = Missing Value Source: Averaged Metar Reports

Daily Weather History Graph

Daily Weather History Graph

Search for Another Location

Airport or City:

Trip Planner

Search our weather history database for the weather conditions in past years. The results will help you decide how hot, cold, wet, or windy it might be!

Date:

Astronomy

Dec. 25, 2012 Rise Set
Actual Time 6:21 AM CST 5:14 PM CST
Civil Twilight 5:57 AM CST 5:39 PM CST
Nautical Twilight 5:29 AM CST 6:06 PM CST
Astronomical Twilight 5:02 AM CST 6:33 PM CST
Moon 3:18 PM CST (12/25) 3:58 AM CST (12/25)
Length of Visible Light 11h 41m
Length of Day
10h 53m
Waxing Gibbous, 94% of the Moon is Illuminated
Dec 25
Waxing Gibbous
Dec 28
Full
Jan 4
Last Quarter
Jan 11
New
Jan 18
First Quarter

Hourly Weather History & Observations

Time (CST) Temp. Dew Point Humidity Pressure Visibility Wind Dir Wind Speed Gust Speed Precip Events Conditions
12:46 AM 55.4 °F 51.8 °F 88% 29.93 in 7.0 mi Calm Calm - N/A   Partly Cloudy
1:42 AM 55.4 °F 51.8 °F 88% 29.92 in 7.0 mi Calm Calm - N/A   Partly Cloudy
2:53 AM 55.4 °F 51.8 °F 88% 29.94 in 7.0 mi Calm Calm - N/A   Partly Cloudy
3:51 AM 59.0 °F 55.4 °F 88% 29.90 in 7.0 mi East 3.5 mph - N/A   Partly Cloudy
4:41 AM 59.0 °F 55.4 °F 88% 29.90 in 7.0 mi Calm Calm - N/A   Partly Cloudy
5:44 AM 59.0 °F 55.4 °F 88% 29.88 in 7.0 mi Calm Calm - N/A   Partly Cloudy
6:42 AM 59.0 °F 55.4 °F 88% 29.92 in 8.0 mi Calm Calm - N/A   Partly Cloudy
7:41 AM 62.6 °F 59.0 °F 88% 29.93 in 8.0 mi Calm Calm - N/A   Partly Cloudy
8:57 AM 73.4 °F 62.6 °F 69% 29.97 in 8.0 mi SE 8.1 mph - N/A   Scattered Clouds
9:46 AM 75.2 °F 64.4 °F 69% 29.95 in 8.0 mi SE 4.6 mph - N/A   Scattered Clouds
10:50 AM 77.0 °F 62.6 °F 61% 29.94 in 8.0 mi SE 9.2 mph - N/A   Scattered Clouds
12:43 PM 77.0 °F 60.8 °F 57% 29.88 in 8.0 mi NE 6.9 mph - N/A   Scattered Clouds
1:45 PM 75.2 °F 60.8 °F 61% 29.85 in 8.0 mi SSE 9.2 mph - N/A   Scattered Clouds
2:50 PM 75.2 °F 60.8 °F 61% 29.86 in 8.0 mi ESE 11.5 mph - N/A   Scattered Clouds
3:46 PM 78.8 °F 57.2 °F 47% 29.82 in 8.0 mi SE 5.8 mph - N/A   Scattered Clouds
4:46 PM 71.6 °F 60.8 °F 69% 29.82 in 8.0 mi SSE 5.8 mph - N/A   Scattered Clouds
5:51 PM 69.8 °F 60.8 °F 73% 29.80 in 8.0 mi Calm Calm - N/A   Scattered Clouds
6:46 PM 69.8 °F 60.8 °F 73% 29.84 in 7.0 mi Calm Calm - N/A   Scattered Clouds
7:45 PM 68.0 °F 60.8 °F 78% 29.85 in 7.0 mi Calm Calm - N/A   Scattered Clouds
8:50 PM 68.0 °F 60.8 °F 78% 29.91 in 7.0 mi SSE 3.5 mph - N/A   Scattered Clouds
9:51 PM 68.0 °F 60.8 °F 78% 29.88 in 7.0 mi SSE 3.5 mph - N/A   Scattered Clouds
10:45 PM 69.8 °F 62.6 °F 78% 29.89 in 7.0 mi Calm Calm - N/A   Scattered Clouds
11:49 PM 68.0 °F 62.6 °F 83% 29.83 in 7.0 mi Calm Calm - N/A   Scattered Clouds